DW8010 Weather Reports


time (UTC)temp
C
wind
direction
speed
KPH
gust
KPH
rain 1hr
cm
rain 24hr
cm
rain mn
cm
humidity
%
barometer
mb
20260507023532 31 0.0 0.0 0.00 0.00 0.00 73 1008.7
20260507023044 31 0.0 0.0 0.00 0.00 0.00 73 1008.5
20260507022530 31 0.0 0.0 0.00 0.00 0.00 72 1008.3
20260507022029 31 0.0 0.0 0.00 0.00 0.00 72 1008.2
20260507021540 31 0.0 0.0 0.00 0.00 0.00 71 1008.1
20260507021028 31 0.0 0.0 0.00 0.00 0.00 71 1008.1
20260507020527 31 0.0 0.0 0.00 0.00 0.00 71 1008.1
20260507020046 31 0.0 0.0 0.00 0.00 0.00 70 1008.0
20260507015529 31 0.0 0.0 0.00 0.00 0.00 70 1007.9
20260507015032 31 0.0 0.0 0.00 0.00 0.00 70 1007.7
20260507014537 31 0.0 0.0 0.00 0.00 0.00 69 1007.6
20260507014035 32 0.0 0.0 0.00 0.00 0.00 69 1007.5
20260507013531 32 0.0 0.0 0.00 0.00 0.00 70 1007.4
20260507013040 32 0.0 0.0 0.00 0.00 0.00 70 1007.4
20260507012530 32 0.0 0.0 0.00 0.00 0.00 70 1007.2
20260507012030 32 0.0 0.0 0.00 0.00 0.00 70 1007.2
20260507011544 32 0.0 0.0 0.00 0.00 0.00 70 1006.9
20260507011027 32 0.0 0.0 0.00 0.00 0.00 69 1006.6
20260507010527 33 0.0 0.0 0.00 0.00 0.00 69 1006.5
20260507010044 33 0.0 0.0 0.00 0.00 0.00 69 1006.4
20260507005527 33 0.0 0.0 0.00 0.00 0.00 68 1006.4
20260507005026 33 0.0 0.0 0.00 0.00 0.00 68 1006.3
20260507004539 33 0.0 0.0 0.00 0.00 0.00 67 1006.2
20260507004027 33 0.0 0.0 0.00 0.00 0.00 67 1006.2
20260507003531 34 0.0 0.0 0.00 0.00 0.00 66 1006.2
20260507003047 34 0.0 0.0 0.00 0.00 0.00 65 1006.2
20260507002531 35 0.0 0.0 0.00 0.00 0.00 65 1006.1
20260507002031 35 0.0 0.0 0.00 0.00 0.00 64 1005.9
20260507001541 35 0.0 0.0 0.00 0.00 0.00 63 1005.8
20260507001032 35 0.0 0.0 0.00 0.00 0.00 62 1005.7
20260507000530 36 0.0 0.0 0.00 0.00 0.00 62 1005.7
20260507000052 36 0.0 0.0 0.00 0.00 0.00 61 1005.5
20260506235528 36 0.0 0.0 0.00 0.00 0.00 60 1005.4
20260506235028 36 0.0 0.0 0.00 0.00 0.00 58 1005.4
20260506234542 36 0.0 0.0 0.00 0.00 0.00 58 1005.3
20260506234048 36 0.0 0.0 0.00 0.00 0.00 57 1005.3
20260506233527 36 0.0 0.0 0.00 0.00 0.00 57 1005.2
20260506233040 36 0.0 0.0 0.00 0.00 0.00 56 1005.2
20260506232530 36 0.0 0.0 0.00 0.00 0.00 56 1005.2
20260506232027 36 0.0 0.0 0.00 0.00 0.00 55 1005.1
20260506231543 36 0.0 0.0 0.00 0.00 0.00 56 1005.0
20260506231031 37 0.0 0.0 0.00 0.00 0.00 55 1004.9
20260506230531 37 0.0 0.0 0.00 0.00 0.00 55 1004.9
20260506230040 37 0.0 0.0 0.00 0.00 0.00 55 1004.9
20260506225530 37 0.0 0.0 0.00 0.00 0.00 54 1004.9
20260506225030 37 0.0 0.0 0.00 0.00 0.00 55 1004.9
20260506224559 37 0.0 0.0 0.00 0.00 0.00 54 1005.0
20260506224027 37 0.0 0.0 0.00 0.00 0.00 55 1005.0
20260506223527 37 0.0 0.0 0.00 0.00 0.00 55 1005.0
20260506223041 37 0.0 0.0 0.00 0.00 0.00 54 1005.0
20260506222531 37 0.0 0.0 0.00 0.00 0.00 54 1005.1
20260506222031 37 0.0 0.0 0.00 0.00 0.00 54 1005.1
20260506221540 37 0.0 0.0 0.00 0.00 0.00 54 1005.1
20260506221030 37 0.0 0.0 0.00 0.00 0.00 55 1005.2
20260506220527 37 0.0 0.0 0.00 0.00 0.00 55 1005.1
20260506220040 37 0.0 0.0 0.00 0.00 0.00 55 1005.1
20260506215530 37 0.0 0.0 0.00 0.00 0.00 56 1005.2
20260506215030 37 0.0 0.0 0.00 0.00 0.00 55 1005.2
20260506214605 37 0.0 0.0 0.00 0.00 0.00 55 1005.3
20260506214030 37 0.0 0.0 0.00 0.00 0.00 56 1005.3
20260506213529 37 0.0 0.0 0.00 0.00 0.00 54 1005.3
20260506213043 37 0.0 0.0 0.00 0.00 0.00 56 1005.4
20260506212530 37 0.0 0.0 0.00 0.00 0.00 54 1005.4
20260506212031 37 0.0 0.0 0.00 0.00 0.00 56 1005.4
20260506211546 37 0.0 0.0 0.00 0.00 0.00 54 1005.4
20260506211027 37 0.0 0.0 0.00 0.00 0.00 56 1005.3
20260506210527 37 0.0 0.0 0.00 0.00 0.00 56 1005.4
20260506210045 37 0.0 0.0 0.00 0.00 0.00 57 1005.6
20260506205527 37 0.0 0.0 0.00 0.00 0.00 55 1005.7
20260506205031 37 0.0 0.0 0.00 0.00 0.00 56 1005.7
20260506204540 37 0.0 0.0 0.00 0.00 0.00 56 1005.8
20260506204029 37 0.0 0.0 0.00 0.00 0.00 55 1005.8
20260506203529 36 0.0 0.0 0.00 0.00 0.00 56 1005.8
20260506203052 36 0.0 0.0 0.00 0.00 0.00 56 1005.9
20260506202531 36 0.0 0.0 0.00 0.00 0.00 59 1005.9
20260506202031 36 0.0 0.0 0.00 0.00 0.00 58 1006.0
20260506201549 36 0.0 0.0 0.00 0.00 0.00 58 1006.1
20260506201030 36 0.0 0.0 0.00 0.00 0.00 57 1006.0
20260506200531 36 0.0 0.0 0.00 0.00 0.00 57 1006.1
20260506200037 36 0.0 0.0 0.00 0.00 0.00 57 1006.1
20260506195531 36 0.0 0.0 0.00 0.00 0.00 59 1006.2
20260506195029 36 0.0 0.0 0.00 0.00 0.00 58 1006.1
20260506194557 36 0.0 0.0 0.00 0.00 0.00 58 1006.4
20260506194035 36 0.0 0.0 0.00 0.00 0.00 61 1006.6
20260506193533 36 0.0 0.0 0.00 0.00 0.00 59 1006.7
20260506193041 35 0.0 0.0 0.00 0.00 0.00 62 1006.8
20260506192531 35 0.0 0.0 0.00 0.00 0.00 62 1006.8
20260506192031 35 0.0 0.0 0.00 0.00 0.00 60 1006.9
20260506191539 35 0.0 0.0 0.00 0.00 0.00 60 1006.9
20260506191030 35 0.0 0.0 0.00 0.00 0.00 60 1006.9
20260506190533 35 0.0 0.0 0.00 0.00 0.00 59 1007.0
20260506190042 35 0.0 0.0 0.00 0.00 0.00 62 1007.2
20260506185530 35 0.0 0.0 0.00 0.00 0.00 60 1007.2
20260506185031 34 0.0 0.0 0.00 0.00 0.00 63 1007.2
20260506184543 34 0.0 0.0 0.00 0.00 0.00 64 1007.1
20260506184032 34 0.0 0.0 0.00 0.00 0.00 63 1007.1
20260506183532 33 0.0 0.0 0.00 0.00 0.00 64 1007.2
20260506183041 33 0.0 0.0 0.00 0.00 0.00 64 1007.3
20260506182530 33 0.0 0.0 0.00 0.00 0.00 66 1007.4
20260506182030 33 0.0 0.0 0.00 0.00 0.00 65 1007.7
20260506181545 33 0.0 0.0 0.00 0.00 0.00 67 1007.7
20260506181031 33 0.0 0.0 0.00 0.00 0.00 66 1007.6
20260506180531 33 0.0 0.0 0.00 0.00 0.00 66 1007.7
20260506180043 33 0.0 0.0 0.00 0.00 0.00 68 1007.7
20260506175532 32 0.0 0.0 0.00 0.00 0.00 69 1007.8
20260506175030 32 0.0 0.0 0.00 0.00 0.00 70 1007.8
20260506174539 32 0.0 0.0 0.00 0.00 0.00 70 1007.8
20260506174030 32 0.0 0.0 0.00 0.00 0.00 70 1007.8
20260506173531 32 0.0 0.0 0.00 0.00 0.00 70 1007.9
20260506173045 32 0.0 0.0 0.00 0.00 0.00 72 1008.0
20260506172531 31 0.0 0.0 0.00 0.00 0.00 72 1008.0
20260506172031 31 0.0 0.0 0.00 0.00 0.00 73 1008.1
20260506171552 30 0.0 0.0 0.00 0.00 0.00 74 1008.1
20260506171033 31 0.0 0.0 0.00 0.00 0.00 74 1008.0
20260506170533 30 0.0 0.0 0.00 0.00 0.00 76 1008.0
20260506170040 30 0.0 0.0 0.00 0.00 0.00 75 1007.9
20260506165530 30 0.0 0.0 0.00 0.00 0.00 76 1007.9
20260506165031 30 0.0 0.0 0.00 0.00 0.00 76 1008.0
20260506164538 29 0.0 0.0 0.00 0.00 0.00 77 1008.2
20260506164030 29 0.0 0.0 0.00 0.00 0.00 78 1008.1
20260506163530 29 0.0 0.0 0.00 0.00 0.00 78 1008.1
20260506163043 29 0.0 0.0 0.00 0.00 0.00 78 1008.1
20260506162532 28 0.0 0.0 0.00 0.00 0.00 79 1008.1
20260506162030 28 0.0 0.0 0.00 0.00 0.00 79 1008.0
20260506161541 28 0.0 0.0 0.00 0.00 0.00 79 1008.1
20260506161031 28 0.0 0.0 0.00 0.00 0.00 79 1008.0
20260506160531 28 0.0 0.0 0.00 0.00 0.00 79 1008.0
20260506160042 28 0.0 0.0 0.00 0.00 0.00 80 1008.0
20260506155530 28 0.0 0.0 0.00 0.00 0.00 80 1008.0
20260506155031 28 0.0 0.0 0.00 0.00 0.00 80 1008.0
20260506154547 28 0.0 0.0 0.00 0.00 0.00 80 1008.0
20260506154031 28 0.0 0.0 0.00 0.00 0.00 81 1008.0
20260506153531 28 0.0 0.0 0.00 0.00 0.00 82 1008.0
20260506153038 27 0.0 0.0 0.00 0.00 0.00 82 1007.8
20260506152530 27 0.0 0.0 0.00 0.00 0.00 82 1007.8
20260506152030 27 0.0 0.0 0.00 0.00 0.00 82 1007.8
20260506151545 27 0.0 0.0 0.00 0.00 0.00 82 1007.8
20260506151031 27 0.0 0.0 0.00 0.00 0.00 83 1007.9
20260506150532 27 0.0 0.0 0.00 0.00 0.00 83 1007.9
20260506150047 27 0.0 0.0 0.00 0.00 0.00 83 1008.1
20260506145536 27 0.0 0.0 0.00 0.00 0.00 83 1008.0
20260506145030 27 0.0 0.0 0.00 0.00 0.00 84 1008.2
20260506144547 27 0.0 0.0 0.00 0.00 0.00 84 1008.2
20260506144030 26 0.0 0.0 0.00 0.00 0.00 84 1008.3
20260506143533 26 0.0 0.0 0.00 0.00 0.00 84 1008.3
20260506143039 26 0.0 0.0 0.00 0.00 0.00 84 1008.4
20260506142531 26 0.0 0.0 0.00 0.00 0.00 84 1008.5
20260506142030 26 0.0 0.0 0.00 0.00 0.00 84 1008.5
20260506141614 26 0.0 0.0 0.00 0.00 0.00 84 1008.3
20260506141031 26 0.0 0.0 0.00 0.00 0.00 84 1008.4
20260506140531 26 0.0 0.0 0.00 0.00 0.00 84 1008.5
20260506140057 26 0.0 0.0 0.00 0.00 0.00 84 1008.5
20260506135530 26 0.0 0.0 0.00 0.00 0.00 84 1008.4
20260506135030 26 0.0 0.0 0.00 0.00 0.00 84 1008.3
20260506134543 26 0.0 0.0 0.00 0.00 0.00 84 1008.2
20260506134031 26 0.0 0.0 0.00 0.00 0.00 85 1008.2
20260506133531 26 0.0 0.0 0.00 0.00 0.00 85 1008.2
20260506133046 26 0.0 0.0 0.00 0.00 0.00 85 1008.3
20260506132530 26 0.0 0.0 0.00 0.00 0.00 85 1008.3
20260506132030 26 0.0 0.0 0.00 0.00 0.00 85 1008.2
20260506131541 26 0.0 0.0 0.00 0.00 0.00 85 1008.1
20260506131031 26 0.0 0.0 0.00 0.00 0.00 85 1008.2
20260506130531 26 0.0 0.0 0.00 0.00 0.00 85 1008.2
20260506130040 26 0.0 0.0 0.00 0.00 0.00 85 1008.1
20260506125531 26 0.0 0.0 0.00 0.00 0.00 85 1008.1
20260506125030 26 0.0 0.0 0.00 0.00 0.00 85 1008.1
20260506124546 26 0.0 0.0 0.00 0.00 0.00 85 1008.0
20260506124028 26 0.0 0.0 0.00 0.00 0.00 85 1008.0
20260506123528 26 0.0 0.0 0.00 0.00 0.00 85 1007.9
20260506123045 26 0.0 0.0 0.00 0.00 0.00 85 1007.7
20260506122528 26 0.0 0.0 0.00 0.00 0.00 85 1007.6
20260506122028 26 0.0 0.0 0.00 0.00 0.00 85 1007.4
20260506121551 26 0.0 0.0 0.00 0.00 0.00 85 1007.3
20260506121030 26 0.0 0.0 0.00 0.00 0.00 85 1007.2
20260506120528 26 0.0 0.0 0.00 0.00 0.00 85 1007.1
20260506120042 26 0.0 0.0 0.00 0.00 0.00 85 1006.9
20260506115529 26 0.0 0.0 0.00 0.00 0.00 85 1006.9
20260506115027 26 0.0 0.0 0.00 0.00 0.00 85 1007.0
20260506114538 26 0.0 0.0 0.00 0.00 0.00 85 1006.7
20260506114030 26 0.0 0.0 0.00 0.00 0.00 85 1006.6
20260506113528 26 0.0 0.0 0.00 0.00 0.00 85 1006.5
20260506113051 26 0.0 0.0 0.00 0.00 0.00 85 1006.5
20260506112532 26 0.0 0.0 0.00 0.00 0.00 85 1006.5
20260506112028 26 0.0 0.0 0.00 0.00 0.00 85 1006.4
20260506111544 26 0.0 0.0 0.00 0.00 0.00 85 1006.3
20260506111028 26 0.0 0.0 0.00 0.00 0.00 85 1006.3
20260506110528 26 0.0 0.0 0.00 0.00 0.00 85 1006.2
20260506110041 26 0.0 0.0 0.00 0.00 0.00 84 1006.1
20260506105527 26 0.0 0.0 0.00 0.00 0.00 84 1006.0
20260506105028 26 0.0 0.0 0.00 0.00 0.00 84 1005.8
20260506104546 26 0.0 0.0 0.00 0.00 0.00 84 1005.9
20260506104027 26 0.0 0.0 0.00 0.00 0.00 84 1005.8
20260506103529 26 0.0 0.0 0.00 0.00 0.00 84 1005.8
20260506103041 26 0.0 0.0 0.00 0.00 0.00 84 1005.7
20260506102529 26 0.0 0.0 0.00 0.00 0.00 84 1005.5
20260506102029 26 0.0 0.0 0.00 0.00 0.00 84 1005.4
20260506101547 26 0.0 0.0 0.00 0.00 0.00 84 1005.4
20260506101028 26 0.0 0.0 0.00 0.00 0.00 84 1005.5
20260506100528 26 0.0 0.0 0.00 0.00 0.00 84 1005.5
20260506100037 26 0.0 0.0 0.00 0.00 0.00 84 1005.5
20260506095528 26 0.0 0.0 0.00 0.00 0.00 84 1005.4
20260506095028 26 0.0 0.0 0.00 0.00 0.00 84 1005.4
20260506094542 26 0.0 0.0 0.00 0.00 0.00 84 1005.4
20260506094027 26 0.0 0.0 0.00 0.00 0.00 84 1005.4
20260506093528 26 0.0 0.0 0.00 0.00 0.00 84 1005.4
20260506093041 26 0.0 0.0 0.00 0.00 0.00 84 1005.5
20260506092528 26 0.0 0.0 0.00 0.00 0.00 84 1005.6
20260506092028 26 0.0 0.0 0.00 0.00 0.00 84 1005.5
20260506091538 26 0.0 0.0 0.00 0.00 0.00 84 1005.5
20260506091028 26 0.0 0.0 0.00 0.00 0.00 84 1005.5
20260506090531 26 0.0 0.0 0.00 0.00 0.00 84 1005.5
20260506090038 26 0.0 0.0 0.00 0.00 0.00 84 1005.5
20260506085528 26 0.0 0.0 0.00 0.00 0.00 84 1005.6
20260506085031 26 0.0 0.0 0.00 0.00 0.00 84 1005.5
20260506084542 26 0.0 0.0 0.00 0.00 0.00 84 1005.6
20260506084028 26 0.0 0.0 0.00 0.00 0.00 84 1005.6
20260506083530 26 0.0 0.0 0.00 0.00 0.00 84 1005.6
20260506083047 26 0.0 0.0 0.00 0.00 0.00 84 1005.7
20260506082528 26 0.0 0.0 0.00 0.00 0.00 84 1005.8
20260506082028 26 0.0 0.0 0.00 0.00 0.00 84 1005.7
20260506081543 26 0.0 0.0 0.00 0.00 0.00 84 1005.8
20260506081033 26 0.0 0.0 0.00 0.00 0.00 84 1005.8
20260506080528 26 0.0 0.0 0.00 0.00 0.00 84 1005.7
20260506073528 26 0.0 0.0 0.00 0.00 0.00 84 1006.1
20260506073039 26 0.0 0.0 0.00 0.00 0.00 83 1006.0
20260506072528 26 0.0 0.0 0.00 0.00 0.00 83 1006.1
20260506072028 26 0.0 0.0 0.00 0.00 0.00 83 1006.2
20260506071538 26 0.0 0.0 0.00 0.00 0.00 83 1006.2
20260506071031 26 0.0 0.0 0.00 0.00 0.00 83 1006.2
20260506070528 26 0.0 0.0 0.00 0.00 0.00 83 1006.3
20260506062030 26 0.0 0.0 0.00 0.00 0.00 82 1006.7
20260506061538 26 0.0 0.0 0.00 0.00 0.00 82 1006.9
20260506061028 26 0.0 0.0 0.00 0.00 0.00 82 1007.1
20260506060528 26 0.0 0.0 0.00 0.00 0.00 82 1007.1
20260506051030 27 0.0 0.0 0.00 0.00 0.00 81 1007.4
20260506050530 27 0.0 0.0 0.00 0.00 0.00 81 1007.5
20260506045029 27 0.0 0.0 0.00 0.00 0.00 81 1007.4
20260506044537 27 0.0 0.0 0.00 0.00 0.00 80 1007.2
20260506044028 27 0.0 0.0 0.00 0.00 0.00 80 1007.2
20260506043528 27 0.0 0.0 0.00 0.00 0.00 80 1007.3
20260506043042 27 0.0 0.0 0.00 0.00 0.00 80 1007.5
20260506042528 27 0.0 0.0 0.00 0.00 0.00 80 1007.4
20260506042028 27 0.0 0.0 0.00 0.00 0.00 80 1007.6
20260506041540 27 0.0 0.0 0.00 0.00 0.00 80 1007.6
20260506041027 27 0.0 0.0 0.00 0.00 0.00 80 1007.5
20260506040527 27 0.0 0.0 0.00 0.00 0.00 80 1007.4
20260506040042 27 0.0 0.0 0.00 0.00 0.00 79 1007.4
20260506035530 27 0.0 0.0 0.00 0.00 0.00 79 1007.3
20260506035029 27 0.0 0.0 0.00 0.00 0.00 79 1007.3
20260506034538 27 0.0 0.0 0.00 0.00 0.00 79 1007.1
20260506034028 27 0.0 0.0 0.00 0.00 0.00 79 1007.2
20260506033528 27 0.0 0.0 0.00 0.00 0.00 79 1007.1
20260506033044 27 0.0 0.0 0.00 0.00 0.00 79 1007.0
20260506032528 27 0.0 0.0 0.00 0.00 0.00 79 1007.0
20260506032028 27 0.0 0.0 0.00 0.00 0.00 79 1007.0
20260506031542 27 0.0 0.0 0.00 0.00 0.00 79 1006.9
20260506031027 27 0.0 0.0 0.00 0.00 0.00 79 1006.6
20260506030527 27 0.0 0.0 0.00 0.00 0.00 78 1006.5
20260506030040 27 0.0 0.0 0.00 0.00 0.00 78 1006.6
20260506025527 27 0.0 0.0 0.00 0.00 0.00 78 1006.6
20260506025031 27 0.0 0.0 0.00 0.00 0.00 78 1006.6
20260506024538 27 0.0 0.0 0.00 0.00 0.00 78 1006.6
20260506024028 27 0.0 0.0 0.00 0.00 0.00 78 1006.5